| time (UTC) | temp F | wind direction | speed MPH | gust MPH | rain 1hr in | rain 24hr in | rain mn in | humidity % | barometer mb |
| 20260506185057 | 64 | 180 | 1.0 | 5.0 | 0.02 | 0.31 | 0.30 | 80 | 1005.0 |
| 20260506184323 | 63 | 23 | 1.0 | 2.0 | 0.02 | 0.31 | 0.30 | 80 | 1005.1 |
| 20260506183340 | 63 | 90 | 1.0 | 1.0 | 0.02 | 0.31 | 0.30 | 79 | 1005.2 |
| 20260506182517 | 62 | 114 | 1.0 | 3.0 | 0.02 | 0.31 | 0.31 | 80 | 1005.3 |
| 20260506181910 | 62 | 0 | 1.0 | 2.0 | 0.03 | 0.30 | 0.29 | 78 | 1005.4 |
| 20260506181035 | 62 | 70 | 0.0 | 2.0 | 0.03 | 0.30 | 0.31 | 78 | 1005.4 |
| 20260506180147 | 62 | 158 | 1.0 | 3.0 | 0.04 | 0.29 | 0.28 | 79 | 1005.4 |
| 20260506175516 | 62 | 95 | 1.0 | 4.0 | 0.04 | 0.29 | 0.30 | 79 | 1005.4 |
| 20260506174516 | 61 | 105 | 1.0 | 3.0 | 0.04 | 0.28 | 0.29 | 80 | 1005.4 |
| 20260506173900 | 61 | 180 | 1.0 | 2.0 | 0.06 | 0.28 | 0.28 | 80 | 1005.5 |
| 20260506173016 | 61 | 131 | 1.0 | 3.0 | 0.06 | 0.28 | 0.28 | 80 | 1005.5 |
| 20260506172037 | 61 | 146 | 1.0 | 3.0 | 0.06 | 0.28 | 0.28 | 80 | 1005.6 |
| 20260506171017 | 60 | 84 | 1.0 | 4.0 | 0.06 | 0.27 | 0.27 | 80 | 1005.7 |
| 20260506170109 | 60 | 90 | 1.0 | 1.0 | 0.05 | 0.25 | 0.24 | 80 | 1005.8 |
| 20260506165052 | 60 | 135 | 1.0 | 2.0 | 0.05 | 0.24 | 0.24 | 79 | 1005.9 |
| 20260506164400 | 59 | 0 | 1.0 | 2.0 | 0.05 | 0.24 | 0.23 | 79 | 1006.1 |
| 20260506163516 | 59 | 97 | 1.0 | 3.0 | 0.05 | 0.24 | 0.24 | 79 | 1006.1 |
| 20260506162947 | 59 | 90 | 1.0 | 1.0 | 0.05 | 0.22 | 0.21 | 79 | 1006.1 |
| 20260506161820 | 59 | 90 | 2.0 | 2.0 | 0.05 | 0.21 | 0.20 | 79 | 1006.2 |
| 20260506160825 | 59 | 90 | 1.0 | 3.0 | 0.05 | 0.20 | 0.20 | 78 | 1006.4 |
| 20260506160017 | 59 | 108 | 1.0 | 3.0 | 0.05 | 0.20 | 0.20 | 79 | 1006.4 |
| 20260506155319 | 59 | 90 | 2.0 | 3.0 | 0.05 | 0.20 | 0.19 | 80 | 1006.5 |
| 20260506154409 | 59 | 90 | 1.0 | 3.0 | 0.05 | 0.19 | 0.18 | 79 | 1006.7 |
| 20260506153517 | 59 | 92 | 2.0 | 4.0 | 0.05 | 0.19 | 0.19 | 78 | 1006.8 |
| 20260506152824 | 59 | 45 | 1.0 | 1.0 | 0.05 | 0.17 | 0.17 | 77 | 1006.8 |
| 20260506152017 | 58 | 87 | 1.0 | 2.0 | 0.05 | 0.17 | 0.17 | 78 | 1006.9 |
| 20260506151323 | 58 | 90 | 1.0 | 2.0 | 0.06 | 0.17 | 0.16 | 78 | 1007.0 |
| 20260506150408 | 58 | 90 | 1.0 | 1.0 | 0.06 | 0.16 | 0.15 | 76 | 1007.1 |
| 20260506145321 | 58 | 90 | 1.0 | 3.0 | 0.06 | 0.15 | 0.14 | 77 | 1007.3 |
| 20260506144326 | 58 | 0.0 | 0.0 | 0.06 | 0.14 | 0.13 | 77 | 1007.6 | |
| 20260506143517 | 58 | 90 | 0.0 | 2.0 | 0.06 | 0.14 | 0.13 | 76 | 1007.7 |
| 20260506142536 | 58 | 90 | 1.0 | 2.0 | 0.06 | 0.13 | 0.13 | 77 | 1007.9 |
| 20260506141610 | 58 | 0.0 | 0.0 | 0.05 | 0.12 | 0.11 | 77 | 1007.9 | |
| 20260506140908 | 58 | 0.0 | 0.0 | 0.03 | 0.10 | 0.09 | 76 | 1007.8 | |
| 20260506135819 | 58 | 0.0 | 0.0 | 0.03 | 0.09 | 0.09 | 76 | 1007.8 | |
| 20260506134819 | 58 | 0.0 | 1.0 | 0.04 | 0.09 | 0.09 | 76 | 1007.7 | |
| 20260506133818 | 58 | 0.0 | 0.0 | 0.02 | 0.08 | 0.07 | 75 | 1007.6 | |
| 20260506132826 | 58 | 45 | 1.0 | 0.0 | 0.04 | 0.08 | 0.07 | 77 | 1007.4 |
| 20260506131820 | 58 | 0.0 | 0.0 | 0.04 | 0.07 | 0.06 | 75 | 1007.4 | |
| 20260506130827 | 58 | 0.0 | 0.0 | 0.05 | 0.07 | 0.06 | 76 | 1007.5 | |
| 20260506130037 | 57 | 90 | 0.0 | 1.0 | 0.05 | 0.07 | 0.06 | 76 | 1007.5 |
| 20260506125320 | 57 | 0.0 | 1.0 | 0.05 | 0.06 | 0.06 | 77 | 1007.7 | |
| 20260506124516 | 57 | 80 | 1.0 | 2.0 | 0.05 | 0.06 | 0.06 | 75 | 1007.8 |
| 20260506123820 | 57 | 0.0 | 0.0 | 0.05 | 0.06 | 0.05 | 76 | 1008.0 | |
| 20260506122637 | 57 | 0.0 | 0.0 | 0.03 | 0.04 | 0.03 | 78 | 1008.1 | |
| 20260506121909 | 57 | 0.0 | 0.0 | 0.02 | 0.03 | 0.02 | 78 | 1008.1 | |
| 20260506120844 | 56 | 135 | 1.0 | 2.0 | 0.02 | 0.02 | 0.02 | 78 | 1008.1 |
| 20260506120017 | 56 | 320 | 1.0 | 2.0 | 0.02 | 0.02 | 0.02 | 78 | 1008.2 |
| 20260506115420 | 56 | 0.0 | 0.0 | 0.01 | 0.02 | 0.01 | 78 | 1008.0 | |
| 20260506114341 | 56 | 90 | 1.0 | 0.0 | 0.00 | 0.01 | 0.00 | 78 | 1007.7 |
| 20260506113319 | 55 | 0 | 1.0 | 1.0 | 0.00 | 0.01 | 0.00 | 78 | 1007.7 |
| 20260506112516 | 56 | 264 | 2.0 | 2.0 | 0.00 | 0.01 | 0.00 | 77 | 1007.7 |
| 20260506111820 | 55 | 270 | 1.0 | 0.0 | 0.00 | 0.01 | 0.00 | 76 | 1007.6 |
| 20260506111016 | 55 | 321 | 1.0 | 3.0 | 0.00 | 0.01 | 0.00 | 76 | 1007.7 |
| 20260506110136 | 55 | 225 | 1.0 | 1.0 | 0.00 | 0.01 | 0.00 | 76 | 1007.7 |
| 20260506105517 | 55 | 225 | 0.0 | 1.0 | 0.00 | 0.01 | 0.00 | 76 | 1007.6 |
| 20260506104941 | 55 | 225 | 2.0 | 2.0 | 0.00 | 0.01 | 0.00 | 78 | 1007.6 |
| 20260506103821 | 55 | 270 | 2.0 | 3.0 | 0.00 | 0.01 | 0.00 | 78 | 1007.6 |
| 20260506103035 | 55 | 329 | 3.0 | 6.0 | 0.00 | 0.01 | 0.00 | 78 | 1007.6 |
| 20260506102016 | 55 | 329 | 4.0 | 7.0 | 0.00 | 0.01 | 0.00 | 78 | 1007.6 |
| 20260506101324 | 55 | 315 | 2.0 | 4.0 | 0.00 | 0.02 | 0.00 | 76 | 1007.5 |
| 20260506100017 | 56 | 322 | 3.0 | 5.0 | 0.00 | 0.02 | 0.00 | 75 | 1007.4 |
| 20260506095420 | 56 | 315 | 1.0 | 2.0 | 0.00 | 0.02 | 0.00 | 73 | 1007.2 |
| 20260506094015 | 56 | 323 | 1.0 | 2.0 | 0.00 | 0.02 | 0.00 | 72 | 1007.1 |
| 20260506093408 | 56 | 0.0 | 1.0 | 0.00 | 0.02 | 0.00 | 71 | 1007.1 | |
| 20260506092517 | 56 | 352 | 0.0 | 2.0 | 0.00 | 0.02 | 0.00 | 71 | 1007.2 |
| 20260506091819 | 56 | 270 | 1.0 | 1.0 | 0.00 | 0.02 | 0.00 | 72 | 1007.3 |
| 20260506091016 | 56 | 329 | 1.0 | 3.0 | 0.00 | 0.02 | 0.00 | 71 | 1007.5 |
| 20260506090321 | 56 | 0.0 | 1.0 | 0.00 | 0.02 | 0.00 | 71 | 1007.6 | |
| 20260506085320 | 56 | 0.0 | 0.0 | 0.00 | 0.02 | 0.00 | 70 | 1007.6 | |
| 20260506084536 | 56 | 270 | 0.0 | 1.0 | 0.00 | 0.02 | 0.00 | 70 | 1007.8 |
| 20260506083928 | 56 | 0.0 | 1.0 | 0.00 | 0.02 | 0.00 | 70 | 1007.9 | |
| 20260506082824 | 56 | 0.0 | 1.0 | 0.00 | 0.02 | 0.00 | 69 | 1008.0 | |
| 20260506081822 | 56 | 0.0 | 0.0 | 0.00 | 0.02 | 0.00 | 70 | 1008.1 | |
| 20260506081018 | 56 | 0.0 | 0.0 | 0.00 | 0.02 | 0.00 | 69 | 1008.1 | |
| 20260506080119 | 57 | 0.0 | 0.0 | 0.00 | 0.02 | 0.00 | 68 | 1008.2 | |
| 20260506073515 | 57 | 346 | 0.0 | 1.0 | 0.00 | 0.02 | 0.00 | 70 | 1008.7 |
| 20260506072949 | 57 | 338 | 1.0 | 2.0 | 0.00 | 0.02 | 0.00 | 70 | 1008.7 |
| 20260506071820 | 57 | 0.0 | 1.0 | 0.00 | 0.02 | 0.00 | 69 | 1008.6 | |
| 20260506070557 | 57 | 225 | 1.0 | 1.0 | 0.00 | 0.02 | 0.00 | 69 | 1008.7 |
| 20260506061909 | 57 | 315 | 1.0 | 3.0 | 0.00 | 0.02 | 0.00 | 70 | 1009.2 |
| 20260506061017 | 57 | 202 | 0.0 | 2.0 | 0.00 | 0.02 | 0.00 | 70 | 1009.2 |
| 20260506060427 | 57 | 270 | 1.0 | 3.0 | 0.00 | 0.02 | 0.00 | 70 | 1009.2 |
| 20260506050824 | 57 | 0 | 4.0 | 4.0 | 0.00 | 0.02 | 0.00 | 72 | 1009.0 |
| 20260506045035 | 57 | 323 | 4.0 | 11.0 | 0.00 | 0.02 | 0.00 | 73 | 1008.9 |
| 20260506044319 | 58 | 315 | 4.0 | 11.0 | 0.00 | 0.02 | 0.00 | 73 | 1009.1 |
| 20260506043035 | 58 | 322 | 3.0 | 8.0 | 0.00 | 0.02 | 0.00 | 72 | 1009.2 |
| 20260506042335 | 59 | 315 | 4.0 | 12.0 | 0.00 | 0.02 | 0.00 | 72 | 1009.2 |
| 20260506041516 | 59 | 314 | 5.0 | 11.0 | 0.00 | 0.02 | 0.00 | 72 | 1009.1 |
| 20260506040908 | 60 | 270 | 4.0 | 10.0 | 0.00 | 0.02 | 0.00 | 71 | 1009.1 |
| 20260506035820 | 60 | 270 | 4.0 | 5.0 | 0.00 | 0.02 | 0.02 | 71 | 1009.2 |
| 20260506034820 | 60 | 225 | 3.0 | 4.0 | 0.00 | 0.02 | 0.02 | 70 | 1009.1 |
| 20260506034016 | 60 | 324 | 5.0 | 10.0 | 0.00 | 0.02 | 0.02 | 70 | 1009.1 |
| 20260506033320 | 61 | 0 | 4.0 | 10.0 | 0.00 | 0.02 | 0.02 | 70 | 1009.1 |
| 20260506032338 | 61 | 270 | 4.0 | 9.0 | 0.00 | 0.02 | 0.02 | 70 | 1008.9 |
| 20260506031401 | 62 | 315 | 4.0 | 8.0 | 0.00 | 0.02 | 0.02 | 70 | 1008.8 |
| 20260506030320 | 62 | 270 | 5.0 | 9.0 | 0.00 | 0.02 | 0.02 | 71 | 1008.5 |
| 20260506025229 | 63 | 338 | 6.0 | 14.0 | 0.00 | 0.02 | 0.02 | 72 | 1008.4 |
| 20260506024016 | 63 | 321 | 7.0 | 13.0 | 0.00 | 0.02 | 0.02 | 71 | 1008.4 |
| 20260506023324 | 65 | 0 | 5.0 | 15.0 | 0.00 | 0.02 | 0.02 | 71 | 1008.4 |
| 20260506022516 | 65 | 322 | 6.0 | 13.0 | 0.00 | 0.02 | 0.02 | 71 | 1008.4 |
| 20260506021941 | 66 | 315 | 4.0 | 10.0 | 0.00 | 0.02 | 0.02 | 68 | 1008.4 |
| 20260506020822 | 66 | 338 | 3.0 | 4.0 | 0.00 | 0.02 | 0.02 | 66 | 1008.3 |
| 20260506015909 | 66 | 315 | 2.0 | 5.0 | 0.00 | 0.02 | 0.02 | 66 | 1008.1 |
| 20260506014820 | 66 | 315 | 1.0 | 2.0 | 0.00 | 0.02 | 0.02 | 67 | 1007.9 |
| 20260506013929 | 65 | 225 | 1.0 | 2.0 | 0.00 | 0.02 | 0.02 | 67 | 1007.8 |
| 20260506012820 | 65 | 0.0 | 0.0 | 0.00 | 0.02 | 0.02 | 67 | 1007.6 | |
| 20260506011619 | 65 | 315 | 1.0 | 0.0 | 0.00 | 0.02 | 0.02 | 67 | 1007.4 |
| 20260506010903 | 65 | 315 | 1.0 | 2.0 | 0.00 | 0.02 | 0.02 | 69 | 1007.3 |
| 20260506010037 | 65 | 324 | 1.0 | 5.0 | 0.00 | 0.02 | 0.02 | 68 | 1007.2 |
| 20260506005320 | 65 | 0 | 2.0 | 2.0 | 0.00 | 0.02 | 0.02 | 68 | 1007.3 |
| 20260506004057 | 65 | 315 | 2.0 | 5.0 | 0.00 | 0.02 | 0.02 | 68 | 1007.2 |
| 20260506003517 | 65 | 293 | 3.0 | 9.0 | 0.00 | 0.02 | 0.02 | 68 | 1007.1 |
| 20260506002654 | 65 | 315 | 2.0 | 1.0 | 0.00 | 0.02 | 0.02 | 69 | 1006.6 |
| 20260506001819 | 65 | 270 | 1.0 | 2.0 | 0.00 | 0.02 | 0.02 | 68 | 1006.5 |
| 20260506000819 | 65 | 338 | 1.0 | 2.0 | 0.00 | 0.02 | 0.02 | 67 | 1006.4 |
| 20260505235908 | 66 | 270 | 1.0 | 1.0 | 0.00 | 0.02 | 0.02 | 65 | 1006.4 |
| 20260505234611 | 66 | 0 | 2.0 | 1.0 | 0.00 | 0.02 | 0.02 | 65 | 1006.4 |
| 20260505233925 | 66 | 315 | 2.0 | 3.0 | 0.00 | 0.02 | 0.02 | 65 | 1006.1 |
| 20260505233015 | 66 | 328 | 3.0 | 4.0 | 0.00 | 0.02 | 0.02 | 65 | 1006.0 |
| 20260505232410 | 66 | 0 | 2.0 | 3.0 | 0.00 | 0.02 | 0.02 | 65 | 1005.8 |
| 20260505231407 | 65 | 0 | 3.0 | 6.0 | 0.00 | 0.02 | 0.02 | 68 | 1005.6 |
| 20260505230329 | 65 | 0 | 1.0 | 4.0 | 0.00 | 0.02 | 0.02 | 70 | 1005.6 |
| 20260505225324 | 65 | 0 | 1.0 | 3.0 | 0.00 | 0.02 | 0.02 | 71 | 1005.7 |
| 20260505224340 | 64 | 0 | 3.0 | 3.0 | 0.00 | 0.02 | 0.02 | 72 | 1005.9 |
| 20260505223409 | 64 | 315 | 4.0 | 5.0 | 0.00 | 0.02 | 0.02 | 73 | 1006.0 |
| 20260505222323 | 65 | 315 | 3.0 | 4.0 | 0.00 | 0.02 | 0.02 | 70 | 1006.2 |
| 20260505221356 | 65 | 315 | 6.0 | 10.0 | 0.00 | 0.02 | 0.02 | 70 | 1006.5 |
| 20260505220516 | 65 | 324 | 6.0 | 15.0 | 0.00 | 0.02 | 0.02 | 70 | 1006.5 |
| 20260505215611 | 66 | 315 | 7.0 | 13.0 | 0.01 | 0.02 | 0.02 | 68 | 1006.3 |
| 20260505214809 | 67 | 315 | 7.0 | 12.0 | 0.01 | 0.02 | 0.02 | 64 | 1006.3 |
| 20260505213517 | 67 | 329 | 9.0 | 19.0 | 0.01 | 0.02 | 0.02 | 61 | 1005.8 |
| 20260505212908 | 68 | 315 | 6.0 | 11.0 | 0.01 | 0.02 | 0.02 | 59 | 1005.3 |
| 20260505212016 | 68 | 315 | 8.0 | 17.0 | 0.01 | 0.02 | 0.02 | 58 | 1005.1 |
| 20260505211320 | 70 | 0 | 9.0 | 17.0 | 0.01 | 0.02 | 0.02 | 56 | 1005.3 |
| 20260505210411 | 72 | 315 | 9.0 | 25.0 | 0.01 | 0.02 | 0.02 | 50 | 1005.3 |
| 20260505205537 | 73 | 318 | 13.0 | 28.0 | 0.00 | 0.01 | 0.01 | 49 | 1005.0 |
| 20260505204545 | 76 | 315 | 5.0 | 22.0 | 0.00 | 0.01 | 0.01 | 47 | 1004.4 |
| 20260505203848 | 77 | 315 | 3.0 | 7.0 | 0.00 | 0.01 | 0.01 | 47 | 1004.0 |
| 20260505202517 | 77 | 332 | 3.0 | 10.0 | 0.00 | 0.01 | 0.01 | 49 | 1004.0 |
| 20260505201908 | 76 | 0 | 1.0 | 2.0 | 0.00 | 0.01 | 0.01 | 52 | 1004.0 |
| 20260505201016 | 75 | 323 | 2.0 | 6.0 | 0.00 | 0.01 | 0.01 | 52 | 1004.0 |
| 20260505200414 | 75 | 270 | 2.0 | 1.0 | 0.00 | 0.01 | 0.01 | 52 | 1004.2 |
| 20260505195516 | 75 | 321 | 1.0 | 10.0 | 0.00 | 0.01 | 0.01 | 50 | 1004.3 |
| 20260505194515 | 77 | 327 | 3.0 | 15.0 | 0.00 | 0.01 | 0.01 | 47 | 1004.4 |
| 20260505193650 | 80 | 45 | 6.0 | 11.0 | 0.00 | 0.01 | 0.01 | 38 | 1004.2 |
| 20260505192823 | 82 | 0 | 5.0 | 16.0 | 0.00 | 0.01 | 0.01 | 30 | 1003.7 |
| 20260505192016 | 82 | 314 | 6.0 | 14.0 | 0.00 | 0.01 | 0.01 | 30 | 1003.6 |
| 20260505191321 | 83 | 23 | 4.0 | 6.0 | 0.00 | 0.01 | 0.01 | 30 | 1003.6 |
| 20260505190335 | 83 | 0 | 5.0 | 13.0 | 0.00 | 0.01 | 0.01 | 29 | 1003.7 |